TimeCDT,TemperatureF,Dew PointF,Humidity,Sea Level PressureIn,VisibilityMPH,Wind Direction,Wind SpeedMPH,Gust SpeedMPH,PrecipitationIn,Events,Conditions,WindDirDegrees,DateUTC
12:15 AM,50.9,45.1,81,29.95,10.0,SSE,5.8,-,N/A,,Clear,150,2013-09-22 05:15:00
12:35 AM,50.4,45.0,82,29.94,10.0,SSE,5.8,-,N/A,,Clear,150,2013-09-22 05:35:00
12:55 AM,50.2,44.8,82,29.94,10.0,SE,4.6,-,N/A,,Clear,130,2013-09-22 05:55:00
1:15 AM,50.2,44.6,81,29.94,10.0,SE,5.8,-,N/A,,Clear,140,2013-09-22 06:15:00
1:35 AM,50.0,44.6,82,29.95,10.0,SE,5.8,-,N/A,,Clear,140,2013-09-22 06:35:00
1:55 AM,49.3,44.2,83,29.95,10.0,SE,4.6,-,N/A,,Clear,140,2013-09-22 06:55:00
2:15 AM,49.5,44.2,82,29.95,10.0,SSE,4.6,-,N/A,,Clear,150,2013-09-22 07:15:00
2:35 AM,49.5,44.1,82,29.94,10.0,SE,5.8,-,N/A,,Clear,140,2013-09-22 07:35:00
2:55 AM,49.1,44.1,83,29.94,10.0,SE,4.6,-,N/A,,Clear,130,2013-09-22 07:55:00
3:15 AM,49.1,43.9,82,29.94,10.0,SE,4.6,-,N/A,,Clear,130,2013-09-22 08:15:00
3:35 AM,48.2,43.7,84,29.94,10.0,SE,4.6,-,N/A,,Clear,140,2013-09-22 08:35:00
3:55 AM,48.2,43.7,84,29.95,10.0,SE,4.6,-,N/A,,Clear,140,2013-09-22 08:55:00
4:15 AM,48.6,43.9,84,29.95,10.0,SSE,4.6,-,N/A,,Clear,150,2013-09-22 09:15:00
4:35 AM,48.4,43.7,84,29.96,10.0,SSE,4.6,-,N/A,,Clear,150,2013-09-22 09:35:00
4:55 AM,48.6,43.7,83,29.95,10.0,SSE,4.6,-,N/A,,Clear,150,2013-09-22 09:55:00
5:15 AM,48.6,43.7,83,29.95,10.0,SE,4.6,-,N/A,,Clear,140,2013-09-22 10:15:00
5:35 AM,49.1,43.7,82,29.96,10.0,SSE,4.6,-,N/A,,Clear,150,2013-09-22 10:35:00
5:55 AM,48.4,43.7,84,29.96,10.0,SE,4.6,-,N/A,,Clear,140,2013-09-22 10:55:00
6:15 AM,48.2,43.7,84,29.96,10.0,SE,5.8,-,N/A,,Clear,140,2013-09-22 11:15:00
6:35 AM,49.1,43.9,82,29.97,10.0,SSE,5.8,-,N/A,,Clear,150,2013-09-22 11:35:00
6:55 AM,49.3,43.9,82,29.97,10.0,SSE,4.6,-,N/A,,Clear,150,2013-09-22 11:55:00
7:15 AM,49.3,44.1,82,29.97,10.0,SSE,4.6,-,N/A,,Clear,150,2013-09-22 12:15:00
7:35 AM,50.4,44.6,81,29.97,10.0,SSE,4.6,-,N/A,,Clear,160,2013-09-22 12:35:00
7:55 AM,52.0,45.5,79,29.98,10.0,SSE,4.6,-,N/A,,Clear,160,2013-09-22 12:55:00
8:15 AM,54.0,46.4,76,29.98,10.0,SSE,4.6,-,N/A,,Clear,150,2013-09-22 13:15:00
8:35 AM,56.3,47.1,71,29.99,10.0,SSE,5.8,-,N/A,,Clear,150,2013-09-22 13:35:00
8:55 AM,58.5,47.5,67,29.99,10.0,SSE,6.9,-,N/A,,Clear,150,2013-09-22 13:55:00
9:15 AM,60.6,47.7,62,30.00,10.0,SSE,8.1,-,N/A,,Clear,150,2013-09-22 14:15:00
9:35 AM,62.6,47.3,57,29.99,10.0,SSE,8.1,-,N/A,,Clear,160,2013-09-22 14:35:00
9:55 AM,64.2,47.8,55,29.99,10.0,SSE,10.4,-,N/A,,Clear,160,2013-09-22 14:55:00
10:15 AM,66.2,47.7,51,29.99,10.0,SSE,12.7,-,N/A,,Clear,160,2013-09-22 15:15:00
10:35 AM,68.0,47.8,48,30.00,10.0,South,10.4,-,N/A,,Clear,170,2013-09-22 15:35:00
10:55 AM,69.3,47.8,46,30.00,10.0,South,9.2,17.3,N/A,,Clear,170,2013-09-22 15:55:00
11:15 AM,70.0,48.2,46,29.99,7.0,South,6.9,-,N/A,,Clear,180,2013-09-22 16:15:00
11:35 AM,71.1,47.8,44,29.99,10.0,South,9.2,-,N/A,,Clear,190,2013-09-22 16:35:00
11:55 AM,71.4,47.1,42,29.98,10.0,South,10.4,-,N/A,,Clear,180,2013-09-22 16:55:00
12:15 PM,72.0,47.5,42,29.98,7.0,SSE,10.4,-,N/A,,Clear,160,2013-09-22 17:15:00
12:35 PM,73.0,48.4,42,29.98,10.0,South,8.1,-,N/A,,Clear,170,2013-09-22 17:35:00
12:55 PM,73.4,48.0,41,29.96,7.0,South,4.6,16.1,N/A,,Clear,180,2013-09-22 17:55:00
1:15 PM,74.3,48.9,41,29.96,10.0,SSE,8.1,-,N/A,,Clear,150,2013-09-22 18:15:00
1:35 PM,74.3,48.9,41,29.95,10.0,SSE,10.4,-,N/A,,Clear,160,2013-09-22 18:35:00
1:55 PM,74.8,49.1,40,29.94,10.0,SSE,9.2,-,N/A,,Clear,150,2013-09-22 18:55:00
2:15 PM,75.4,49.5,40,29.94,7.0,SE,8.1,-,N/A,,Clear,140,2013-09-22 19:15:00
2:35 PM,75.4,49.3,40,29.93,10.0,South,6.9,-,N/A,,Clear,170,2013-09-22 19:35:00
2:55 PM,75.9,49.1,39,29.92,10.0,South,8.1,-,N/A,,Clear,170,2013-09-22 19:55:00
3:15 PM,76.6,50.0,39,29.92,10.0,SSE,9.2,-,N/A,,Clear,150,2013-09-22 20:15:00
3:35 PM,76.3,49.5,39,29.91,10.0,South,8.1,-,N/A,,Clear,190,2013-09-22 20:35:00
3:55 PM,76.5,49.8,39,29.91,10.0,SSE,6.9,-,N/A,,Clear,160,2013-09-22 20:55:00
4:15 PM,76.1,49.6,39,29.90,10.0,SSE,10.4,-,N/A,,Clear,160,2013-09-22 21:15:00
4:35 PM,75.9,50.0,40,29.90,7.0,ESE,11.5,17.3,N/A,,Clear,120,2013-09-22 21:35:00
4:55 PM,75.6,50.2,41,29.90,10.0,SE,8.1,-,N/A,,Clear,140,2013-09-22 21:55:00
5:15 PM,75.2,50.0,41,29.90,10.0,SSE,8.1,-,N/A,,Clear,150,2013-09-22 22:15:00
5:35 PM,74.7,50.5,43,29.90,10.0,SSE,5.8,-,N/A,,Clear,150,2013-09-22 22:35:00
5:55 PM,73.9,50.4,43,29.90,10.0,SE,5.8,-,N/A,,Clear,140,2013-09-22 22:55:00
6:15 PM,72.7,50.9,46,29.90,10.0,SE,9.2,-,N/A,,Clear,140,2013-09-22 23:15:00
6:35 PM,70.9,51.8,51,29.90,10.0,SE,6.9,-,N/A,,Clear,130,2013-09-22 23:35:00
6:55 PM,68.7,51.1,53,29.90,10.0,SE,4.6,-,N/A,,Clear,130,2013-09-22 23:55:00
7:15 PM,65.7,51.6,60,29.90,10.0,SE,4.6,-,N/A,,Clear,130,2013-09-23 00:15:00
7:35 PM,63.5,51.8,66,29.90,10.0,SE,4.6,-,N/A,,Clear,130,2013-09-23 00:35:00
7:55 PM,61.7,51.4,69,29.90,10.0,ESE,4.6,-,N/A,,Clear,120,2013-09-23 00:55:00
8:15 PM,61.0,51.3,70,29.91,10.0,ESE,5.8,-,N/A,,Clear,120,2013-09-23 01:15:00
8:35 PM,60.8,50.7,69,29.91,10.0,ESE,4.6,-,N/A,,Clear,120,2013-09-23 01:35:00
8:55 PM,60.3,50.0,69,29.91,10.0,ESE,5.8,-,N/A,,Clear,120,2013-09-23 01:55:00
9:15 PM,59.9,49.3,68,29.91,10.0,ESE,5.8,-,N/A,,Clear,120,2013-09-23 02:15:00
9:35 PM,59.9,48.4,66,29.92,10.0,ESE,5.8,-,N/A,,Clear,120,2013-09-23 02:35:00
9:55 PM,59.4,47.8,66,29.92,10.0,ESE,6.9,-,N/A,,Clear,120,2013-09-23 02:55:00
10:15 PM,59.5,47.5,64,29.92,10.0,ESE,6.9,-,N/A,,Clear,120,2013-09-23 03:15:00
10:35 PM,59.0,47.3,65,29.92,10.0,ESE,5.8,-,N/A,,Clear,120,2013-09-23 03:35:00
10:55 PM,58.1,47.3,67,29.92,10.0,SE,5.8,-,N/A,,Clear,130,2013-09-23 03:55:00
11:15 PM,57.2,47.3,69,29.93,10.0,SE,5.8,-,N/A,,Clear,130,2013-09-23 04:15:00
11:35 PM,56.5,47.3,71,29.93,10.0,SE,5.8,-,N/A,,Clear,130,2013-09-23 04:35:00
11:55 PM,55.8,47.3,73,29.93,10.0,SE,5.8,-,N/A,,Clear,130,2013-09-23 04:55:00